time_stamp(utc),avg(mph),gust(mph),direction(deg),12m_air_temp(f),sonic_u(cm/s),sonic_v(cm/s),sonic_w(cm/s),pressure,2m_air_temp(f),pyranometer(W/m^2)
"2021-06-09 00:02:39+00",4.7,4.7,,72.4,-203,-9,6,1015.52,72.3,0
"2021-06-09 00:07:39+00",4.7,4.7,,72.5,-199,-12,3,1015.46,72.5,0
"2021-06-09 00:12:39+00",5.6,6.6,,72.4,-227,-138,7,1015.34,72.5,0
"2021-06-09 00:17:39+00",5.9,6.9,,72.1,-203,-167,8,1015.41,72.5,0
"2021-06-09 00:22:39+00",6.2,7.2,,71.5,-222,-164,8,1015.42,71.9,0
"2021-06-09 00:27:39+00",4.3,4.3,,71.4,-166,-55,7,1015.4,71.8,0
"2021-06-09 00:32:39+00",5.1,6.1,,71.3,-148,-163,6,1015.39,71.8,0
"2021-06-09 00:37:39+00",5.4,6.4,,71.4,-180,-152,10,1015.4,71.6,0
"2021-06-09 00:42:39+00",5.7,6.7,,71.4,-219,-148,15,1015.48,71.7,0
"2021-06-09 00:47:39+00",5.4,6.4,,71.1,-229,7,13,1015.7,71.7,0
"2021-06-09 00:52:39+00",5.0,6.0,,71.2,-186,-129,5,1015.82,71.6,0
"2021-06-09 00:57:39+00",6.3,6.3,,71.5,-182,-194,-1,1015.86,71.6,0
"2021-06-09 01:02:39+00",6.4,7.4,,71.6,-173,-236,2,1015.89,71.4,0
"2021-06-09 01:07:39+00",4.4,5.4,,71.8,-138,-123,4,1015.94,71.5,0
"2021-06-09 01:12:39+00",4.2,5.2,,70.9,-21,-162,11,1016.05,70.7,0
"2021-06-09 01:17:39+00",7.1,9.1,,69.9,-35,-300,-10,1016.26,70.1,0
"2021-06-09 01:22:39+00",8.4,9.4,,69.4,-103,-341,-7,1016.22,69.4,0
"2021-06-09 01:27:39+00",9.0,12.0,,69.3,-27,-375,-14,1016.16,69.2,0
"2021-06-09 01:32:39+00",8.4,9.4,,69.3,7,-360,-23,1016.09,69.2,0
"2021-06-09 01:37:39+00",6.2,9.2,,69.1,-36,-259,1,1016.04,68.9,0
"2021-06-09 01:42:39+00",8.0,10.0,,69,-29,-345,-18,1016.15,68.9,0
"2021-06-09 01:47:39+00",7.4,9.4,,69.2,-61,-308,-1,1016.23,68.9,0
"2021-06-09 01:52:39+00",7.5,9.5,,69.3,-53,-307,16,1016.23,69.1,0
"2021-06-09 01:57:39+00",10.1,12.1,,69.4,-67,-410,-12,1016.03,69.2,0
"2021-06-09 02:02:39+00",9.4,12.4,,69.5,-17,-402,-25,1016,69.2,0
"2021-06-09 02:07:39+00",6.9,8.9,,69.5,-36,-279,-10,1016.13,69.2,0
"2021-06-09 02:12:39+00",7.5,8.5,,69.5,-109,-304,-4,1016.34,69.2,0
"2021-06-09 02:17:39+00",4.3,6.3,,69.7,-31,-163,-9,1016.37,69.4,0
"2021-06-09 02:22:39+00",4.1,6.1,,69.8,-17,-172,-2,1016.32,69.5,0
"2021-06-09 02:27:39+00",4.4,5.4,,70,24,-177,-11,1016.37,69.7,0
"2021-06-09 02:32:39+00",4.1,5.1,,70.1,-45,-159,-5,1016.42,69.8,0
"2021-06-09 02:37:39+00",4.9,6.9,,70.1,-28,-199,-5,1016.57,69.8,0
"2021-06-09 02:42:39+00",3.0,3.0,,70.1,-114,-50,5,1016.51,69.8,0
"2021-06-09 02:47:39+00",4.9,5.9,,70.2,-54,-196,5,1016.54,69.8,0
"2021-06-09 02:52:39+00",4.2,5.2,,70.2,-32,-160,1,1016.51,69.9,0
"2021-06-09 02:57:39+00",4.3,4.3,,70.2,-92,-158,0,1016.58,69.9,0
"2021-06-09 03:02:39+00",3.1,3.1,,70.4,-118,44,1,1016.66,70,0
"2021-06-09 03:07:39+00",2.3,3.3,,70.6,-86,-14,-3,1016.67,70.2,0
"2021-06-09 03:12:39+00",2.4,2.4,,70.6,-90,-30,1,1016.69,70.2,0
"2021-06-09 03:17:39+00",4.9,4.9,,70.6,-215,-6,6,1016.76,70.4,0
"2021-06-09 03:22:39+00",3.7,4.7,,70.5,-145,-67,10,1016.79,70.4,0
"2021-06-09 03:27:39+00",5.7,5.7,,70.9,-233,-68,5,1016.77,70.5,0
"2021-06-09 03:32:39+00",5.6,6.6,,71.4,-221,-125,4,1016.64,70.7,0
"2021-06-09 03:37:39+00",5.9,7.9,,71.8,-232,-156,1,1016.66,70.9,0
"2021-06-09 03:42:39+00",6.5,7.5,,71.9,-277,-43,7,1016.65,71.2,0
"2021-06-09 03:47:39+00",4.3,4.3,,72,-171,-91,9,1016.57,71.3,0
"2021-06-09 03:52:39+00",5.2,5.2,,72.2,-201,-70,4,1016.49,71.4,0
"2021-06-09 03:57:39+00",4.7,4.7,,72.2,-184,-62,4,1016.44,71.4,0
"2021-06-09 04:02:39+00",5.0,6.0,,72.3,-192,-82,6,1016.41,71.5,0
"2021-06-09 04:07:39+00",5.3,5.3,,72.4,-222,-113,5,1016.48,71.5,0
"2021-06-09 04:12:39+00",5.4,6.4,,72.5,-204,-77,6,1016.46,71.5,0
"2021-06-09 04:17:39+00",5.4,5.4,,72.4,-236,11,7,1016.46,71.5,0
"2021-06-09 04:22:39+00",5.3,6.3,,72.5,-231,52,6,1016.49,71.3,0
"2021-06-09 04:27:39+00",5.8,5.8,,72.6,-259,31,7,1016.44,71.3,0
"2021-06-09 04:32:39+00",5.2,5.2,,72.7,-219,74,8,1016.44,71.3,0
"2021-06-09 04:37:39+00",5.4,6.4,,73,-202,133,10,1016.48,71.3,0
"2021-06-09 04:42:39+00",5.3,5.3,,73.1,-203,121,13,1016.41,71.6,0
"2021-06-09 04:47:39+00",4.5,4.5,,73.2,-178,102,9,1016.34,71.7,0
"2021-06-09 04:52:39+00",4.5,4.5,,73.3,-180,86,11,1016.39,71.8,0
"2021-06-09 04:57:39+00",4.8,4.8,,73.3,-178,117,8,1016.23,71.8,0
"2021-06-09 05:02:39+00",4.1,4.1,,73.2,-139,109,11,1016.18,71.9,0
"2021-06-09 05:07:39+00",2.5,2.5,,73.1,-84,53,2,1016.06,71.9,0
"2021-06-09 05:12:39+00",1.6,1.6,,73,-62,2,2,1016.02,71.8,0
"2021-06-09 05:17:39+00",2.6,2.6,,72.9,-97,-22,2,1016.04,71.6,0
"2021-06-09 05:22:39+00",3.5,4.5,,72.9,-132,-58,5,1016.03,71.6,0
"2021-06-09 05:27:39+00",3.6,4.6,,73,-135,-59,0,1016.1,71.5,0
"2021-06-09 05:32:39+00",3.8,3.8,,73,-158,-12,-2,1016.09,71.3,0
"2021-06-09 05:37:39+00",4.3,4.3,,73.1,-181,-22,-1,1016.15,71.3,0
"2021-06-09 05:42:39+00",3.8,3.8,,73.1,-161,-9,1,1016.12,71.3,0
"2021-06-09 05:47:39+00",4.4,4.4,,73.1,-193,7,1,1016.06,71.2,0
"2021-06-09 05:52:39+00",4.2,5.2,,73.2,-178,12,2,1015.89,71.1,0
"2021-06-09 05:57:39+00",4.5,4.5,,73.1,-194,3,-1,1015.93,71.1,0
"2021-06-09 06:02:39+00",5.4,5.4,,73.3,-233,-15,5,1015.97,71,0
"2021-06-09 06:07:39+00",4.7,4.7,,73.4,-200,-23,4,1015.86,71,0
"2021-06-09 06:12:39+00",4.0,4.0,,73.4,-165,-27,3,1015.84,71,0
"2021-06-09 06:17:39+00",4.1,4.1,,73.3,-177,-3,0,1015.89,71,0
"2021-06-09 06:22:39+00",4.3,4.3,,73.3,-181,-29,1,1015.77,71,0
"2021-06-09 06:27:39+00",4.7,4.7,,73.3,-207,19,6,1015.85,71.1,0
"2021-06-09 06:32:39+00",4.9,4.9,,73.3,-209,65,7,1015.85,71.1,0
"2021-06-09 06:37:39+00",4.5,4.5,,73.3,-178,88,8,1015.81,71.1,0
"2021-06-09 06:42:39+00",3.2,3.2,,73.1,-62,109,-5,1015.74,71.2,0
"2021-06-09 06:47:39+00",5.2,5.2,,72.6,-99,199,6,1015.76,71,0
"2021-06-09 06:52:39+00",6.2,6.2,,72.1,-137,235,10,1015.67,71,0
"2021-06-09 06:57:39+00",7.1,8.1,,71.8,-101,296,3,1015.59,71,0
"2021-06-09 07:02:39+00",5.6,6.6,,71.6,-107,216,7,1015.46,70.9,0
"2021-06-09 07:07:39+00",4.3,4.3,,71.6,-96,155,8,1015.5,70.9,0
"2021-06-09 07:12:39+00",3.6,3.6,,71.5,-90,117,6,1015.43,70.9,0
"2021-06-09 07:17:39+00",3.8,3.8,,71.5,-108,125,3,1015.45,70.9,0
"2021-06-09 07:22:39+00",4.2,5.2,,71.5,-100,146,7,1015.35,70.8,0
"2021-06-09 07:27:39+00",3.4,3.4,,71.4,-69,121,3,1015.39,70.7,0
"2021-06-09 07:32:39+00",3.0,3.0,,71.4,-80,94,4,1015.34,70.6,0
"2021-06-09 07:37:39+00",2.9,2.9,,71.5,-106,65,1,1015.29,70.5,0
"2021-06-09 07:42:39+00",2.9,2.9,,71.6,-110,59,1,1015.25,70.4,0
"2021-06-09 07:47:39+00",3.2,4.2,,71.7,-123,60,3,1015.23,70.4,0
"2021-06-09 07:52:39+00",3.7,4.7,,71.8,-149,61,4,1015.23,70.4,0
"2021-06-09 07:57:39+00",3.7,4.7,,71.8,-113,105,6,1015.09,70.4,0
"2021-06-09 08:02:39+00",4.2,5.2,,71.8,-156,98,-1,1015.14,70.5,0
"2021-06-09 08:07:39+00",4.3,4.3,,72.1,-178,61,4,1015.24,70.5,0
"2021-06-09 08:12:39+00",3.8,3.8,,72.2,-145,90,5,1015.29,70.6,0
"2021-06-09 08:17:39+00",3.4,4.4,,72.2,-132,-35,5,1015.29,70.7,0
"2021-06-09 08:22:39+00",2.7,3.7,,72.2,-111,-15,0,1015.37,70.7,0
"2021-06-09 08:27:39+00",1.7,1.7,,72.1,-68,-4,-2,1015.44,70.7,0
"2021-06-09 08:32:39+00",2.7,2.7,,72,-83,-69,-1,1015.53,71,0
"2021-06-09 08:37:39+00",2.9,2.9,,72.1,-106,-37,2,1015.53,71.1,0
"2021-06-09 08:42:39+00",1.6,1.6,,72.2,-48,-30,2,1015.54,71.1,0
"2021-06-09 08:47:39+00",1.5,1.5,,72.1,-48,-30,2,1015.51,71.1,0
"2021-06-09 08:52:39+00",3.2,4.2,,71.6,59,-105,-16,1015.47,70.7,0
"2021-06-09 08:57:39+00",1.2,1.2,,71.6,-21,-30,-7,1015.54,70.4,0
"2021-06-09 09:02:39+00",2.3,3.3,,71.8,-81,34,-8,1015.5,70.6,0
"2021-06-09 09:07:39+00",2.4,2.4,,71.9,-76,64,-5,1015.42,70.6,0
"2021-06-09 09:12:39+00",1.3,1.3,,71.8,-21,36,7,1015.47,70.4,0
"2021-06-09 09:17:39+00",2.9,2.9,,70.6,105,52,-10,1015.44,69.7,0
"2021-06-09 09:22:39+00",2.1,2.1,,70.2,83,2,-8,1015.46,69.3,0
"2021-06-09 09:27:39+00",1.7,1.7,,70.5,60,24,-2,1015.43,69.3,0
"2021-06-09 09:32:39+00",2.0,2.0,,70.6,74,21,-5,1015.38,69.3,0
"2021-06-09 09:37:39+00",2.7,2.7,,70.8,97,57,-5,1015.48,69.3,0
"2021-06-09 09:42:39+00",2.4,2.4,,70.9,79,55,-3,1015.42,69.3,0
"2021-06-09 09:47:39+00",1.9,2.9,,71,40,57,-1,1015.48,69.5,0
"2021-06-09 09:52:39+00",1.8,2.8,,71,64,32,-2,1015.4,69.6,0
"2021-06-09 09:57:39+00",1.9,2.9,,70.9,73,2,-3,1015.39,69.6,0
"2021-06-09 10:02:39+00",1.8,1.8,,70.9,64,27,-2,1015.37,69.7,0
"2021-06-09 10:07:39+00",2.3,3.3,,71.1,69,61,-2,1015.34,69.9,0
"2021-06-09 10:12:39+00",0.8,0.8,,71.3,25,6,0,1015.39,70.2,0
"2021-06-09 10:17:39+00",1.7,1.7,,71.3,32,-52,-3,1015.47,70.7,0
"2021-06-09 10:22:39+00",3.3,4.3,,71.2,18,-136,3,1015.56,70.8,0
"2021-06-09 10:27:39+00",3.1,4.1,,70.6,24,-123,0,1015.49,69.5,0
"2021-06-09 10:32:39+00",4.0,5.0,,70.3,-2,-164,-4,1015.48,69.7,0
"2021-06-09 10:37:39+00",5.3,6.3,,69.5,24,-210,-5,1015.49,69.1,0
"2021-06-09 10:42:39+00",6.4,7.4,,69.6,-15,-268,-6,1015.54,69.2,0
"2021-06-09 10:47:39+00",5.1,6.1,,69.8,-13,-207,-18,1015.54,69.6,0
"2021-06-09 10:52:39+00",5.0,6.0,,70,-38,-203,-7,1015.53,69.8,0
"2021-06-09 10:57:39+00",5.1,6.1,,69.7,-54,-206,-3,1015.51,69.7,0
"2021-06-09 11:02:39+00",5.3,6.3,,69.6,-81,-207,-7,1015.53,69.7,0
"2021-06-09 11:07:39+00",6.3,7.3,,70,-114,-247,-4,1015.48,70.4,0
"2021-06-09 11:12:39+00",6.4,7.4,,70.6,-123,-251,2,1015.53,71.2,0
"2021-06-09 11:17:39+00",4.9,5.9,,71.1,-125,-173,-2,1015.51,71.8,0
"2021-06-09 11:22:39+00",4.3,4.3,,71.5,-98,-157,-1,1015.5,72.4,0
"2021-06-09 11:27:39+00",4.8,4.8,,71.9,-143,-140,3,1015.49,72.8,0
"2021-06-09 11:32:39+00",4.7,5.7,,72,-115,-170,3,1015.45,72.9,0
"2021-06-09 11:37:39+00",4.0,5.0,,71.7,-83,-153,0,1015.44,72.7,0
"2021-06-09 11:42:39+00",5.5,6.5,,71.6,-103,-212,-6,1015.47,72.4,0
"2021-06-09 11:47:39+00",4.6,5.6,,71.7,-96,-172,-6,1015.55,72.3,0
"2021-06-09 11:52:39+00",4.4,5.4,,71.7,-97,-165,3,1015.57,72.3,0
"2021-06-09 11:57:39+00",4.7,4.7,,71.9,-130,-172,17,1015.69,72.6,0
"2021-06-09 12:02:39+00",5.8,6.8,,72.2,-173,-187,7,1015.58,72.9,0
"2021-06-09 12:07:39+00",6.1,7.1,,72.7,-197,-192,8,1015.64,73.6,0
"2021-06-09 12:12:39+00",5.0,6.0,,73.1,-162,-138,22,1015.56,74.5,0
"2021-06-09 12:17:39+00",5.0,6.0,,73.7,-150,-171,19,1015.49,75.6,0
"2021-06-09 12:22:39+00",6.4,7.4,,74.4,-201,-184,8,1015.51,76.5,0
"2021-06-09 12:27:39+00",6.2,7.2,,74.8,-189,-195,1,1015.48,77.4,0
"2021-06-09 12:32:39+00",6.9,7.9,,74.8,-199,-237,-10,1015.5,77.6,0
"2021-06-09 12:37:39+00",6.7,7.7,,74.7,-198,-213,-5,1015.49,77.4,0
"2021-06-09 12:42:39+00",6.3,7.3,,74.9,-182,-210,-5,1015.66,77.4,0
"2021-06-09 12:47:39+00",6.4,7.4,,75.1,-214,-175,19,1015.64,77.6,0
"2021-06-09 12:52:39+00",6.1,7.1,,75.3,-218,-159,21,1015.63,78,0
"2021-06-09 12:57:39+00",6.9,7.9,,75.3,-222,-201,3,1015.78,78.1,0
"2021-06-09 13:02:39+00",6.9,7.9,,75.3,-230,-190,-6,1015.78,78.3,0
"2021-06-09 13:07:39+00",6.9,7.9,,75.3,-196,-252,33,1015.78,78.3,0
"2021-06-09 13:12:39+00",7.7,8.7,,75.3,-224,-256,8,1015.83,77.9,0
"2021-06-09 13:17:39+00",8.4,9.4,,75.5,-237,-292,-6,1015.81,77.8,0
"2021-06-09 13:22:39+00",6.6,7.6,,75.7,-221,-205,17,1015.86,77.7,0
"2021-06-09 13:27:39+00",7.2,8.2,,76,-227,-234,31,1015.83,78,0
"2021-06-09 13:32:39+00",7.6,8.6,,76,-292,-194,11,1015.84,78.2,0
"2021-06-09 13:37:39+00",7.2,8.2,,76.1,-248,-194,-15,1015.85,78.5,0
"2021-06-09 13:42:39+00",7.3,8.3,,76.3,-227,-218,1,1015.76,78.6,0
"2021-06-09 13:47:39+00",6.7,7.7,,76.5,-285,-164,3,1015.68,78.9,0
"2021-06-09 13:52:39+00",6.7,7.7,,76.7,-251,-174,0,1015.68,79.1,0
"2021-06-09 13:57:39+00",5.9,6.9,,76.9,-197,-174,14,1015.68,79.4,0
"2021-06-09 14:02:39+00",5.7,6.7,,77.2,-219,-124,29,1015.7,80.1,0
"2021-06-09 14:07:39+00",6.7,7.7,,77.4,-239,-175,-19,1015.71,80.8,0
"2021-06-09 14:12:39+00",5.3,8.3,,77.8,-210,-106,38,1015.71,81.6,0
"2021-06-09 14:17:39+00",5.5,6.5,,78,-215,-33,-30,1015.71,81.8,0
"2021-06-09 14:22:39+00",3.2,5.2,,78.3,-124,18,-21,1015.74,82.6,0
"2021-06-09 14:27:39+00",4.9,5.9,,78.6,-214,-18,19,1015.92,83.5,0
"2021-06-09 14:32:39+00",4.7,5.7,,78.7,-199,26,-2,1015.87,83.8,0
"2021-06-09 14:37:39+00",4.8,6.8,,78.9,-201,3,-3,1015.82,84.2,0
"2021-06-09 14:42:39+00",4.1,5.1,,79.2,-187,-36,11,1015.82,84.4,0
"2021-06-09 14:47:39+00",3.4,4.4,,79.4,-120,-60,-8,1015.94,84.9,0
"2021-06-09 14:52:39+00",5.9,7.9,,79.5,-233,-122,33,1015.93,84.8,0
"2021-06-09 14:57:39+00",5.4,6.4,,79.4,-172,-160,9,1015.94,84.6,0
"2021-06-09 15:02:39+00",5.2,7.2,,79.5,-203,-92,44,1015.99,84.7,0
"2021-06-09 15:07:39+00",4.9,5.9,,79.5,-203,28,-6,1016,84.7,0
"2021-06-09 15:12:39+00",3.8,4.8,,79.6,-153,37,5,1016.03,84.6,0
"2021-06-09 15:17:39+00",4.2,5.2,,79.8,-168,-40,16,1016.07,84.9,0
"2021-06-09 15:22:39+00",3.8,4.8,,80,-155,-12,-2,1016.1,85.2,0
"2021-06-09 15:27:39+00",3.0,5.0,,80.2,-109,-37,0,1016.06,85.4,0
"2021-06-09 15:32:39+00",3.9,4.9,,80.6,-148,-62,20,1016.08,85.7,0
"2021-06-09 15:37:39+00",4.7,6.7,,80.8,-186,-18,-8,1016.04,86.1,0
"2021-06-09 15:42:39+00",4.3,6.3,,81.2,-61,-151,27,1016.08,85.3,0
"2021-06-09 15:47:39+00",7.2,8.2,,80.8,-51,-307,-11,1016.18,83.3,0
"2021-06-09 15:52:39+00",5.3,6.3,,80.5,-48,-221,-16,1016.19,82.1,0
"2021-06-09 15:57:39+00",4.0,6.0,,80.8,-18,-150,23,1016.12,82.1,0
"2021-06-09 16:02:39+00",4.8,6.8,,80.9,3,-176,40,1016.1,82,0
"2021-06-09 16:07:39+00",5.1,6.1,,81.3,-29,-208,-8,1016.11,82.2,0
"2021-06-09 16:12:39+00",4.9,5.9,,81.5,11,-166,48,1016.07,82.4,0
"2021-06-09 16:17:39+00",6.1,7.1,,81.7,-39,-238,-10,1016.02,82.7,0
"2021-06-09 16:22:39+00",5.3,6.3,,82,33,-206,8,1016.05,82.9,0
"2021-06-09 16:27:39+00",6.2,7.2,,82.5,76,-248,14,1016.08,83.5,0
"2021-06-09 16:32:39+00",4.2,7.2,,82.8,-51,-169,35,1016.02,84.1,0
"2021-06-09 16:37:39+00",6.6,7.6,,82.7,-140,-237,-25,1016.05,85.4,0
"2021-06-09 16:42:39+00",5.1,7.1,,83,-122,-171,26,1015.94,86,0
"2021-06-09 16:47:39+00",6.2,7.2,,82.7,-167,-222,-1,1016.03,86.6,0
"2021-06-09 16:52:39+00",7.2,9.2,,82.1,55,-282,16,1015.93,84.9,0
"2021-06-09 16:57:39+00",9.5,10.5,,81.3,72,-395,-16,1015.94,83.6,0
"2021-06-09 17:02:39+00",8.0,9.0,,81,47,-331,-10,1016.04,82.6,0
"2021-06-09 17:07:39+00",7.5,9.5,,81.1,29,-303,4,1016.01,82.2,0
"2021-06-09 17:12:39+00",5.5,7.5,,81.4,-10,-211,17,1015.86,82.3,0
"2021-06-09 17:17:39+00",5.4,8.4,,81.8,7,-216,14,1015.84,82.6,0
"2021-06-09 17:22:39+00",6.7,9.7,,81.9,-5,-284,-11,1015.74,82.9,0
"2021-06-09 17:27:39+00",7.7,9.7,,81.9,-14,-323,-12,1015.51,82.9,0
"2021-06-09 17:32:39+00",7.1,9.1,,81.7,1,-323,-25,1015.46,82.6,0
"2021-06-09 17:37:39+00",7.6,9.6,,81.7,-1,-326,-18,1015.43,82.7,0
"2021-06-09 17:42:39+00",7.7,9.7,,81.7,7,-319,-3,1015.27,82.6,0
"2021-06-09 17:47:39+00",7.9,10.9,,82,9,-329,-6,1015.2,83,0
"2021-06-09 17:52:39+00",8.1,10.1,,82.1,22,-348,-4,1015.23,82.9,0
"2021-06-09 17:57:39+00",9.6,11.6,,82.3,-56,-393,-19,1015.28,83.1,0
"2021-06-09 18:02:39+00",9.1,12.1,,82.3,-74,-402,-6,1015.28,83.1,0
"2021-06-09 18:07:39+00",8.3,10.3,,82.2,-24,-340,0,1015.1,83.1,0
"2021-06-09 18:12:39+00",7.9,10.9,,82.5,-52,-336,-8,1015.09,83.3,0
"2021-06-09 18:17:39+00",6.5,8.5,,82.6,-43,-259,29,1014.97,83.5,0
"2021-06-09 18:22:39+00",7.1,10.1,,82.6,-20,-275,8,1014.81,83.5,0
"2021-06-09 18:27:39+00",6.4,9.4,,82.9,-30,-250,42,1014.63,83.7,0
"2021-06-09 18:32:39+00",8.6,11.6,,82.7,-45,-347,3,1014.75,83.4,0
"2021-06-09 18:37:39+00",10.2,15.2,,82.9,-80,-403,39,1014.69,83.7,0
"2021-06-09 18:42:39+00",13.9,14.9,,82.8,-221,-565,-22,1014.76,83.7,0
"2021-06-09 18:47:39+00",10.9,12.9,,82.7,-162,-447,13,1014.68,83.6,0
"2021-06-09 18:52:39+00",11.6,12.6,,82.5,-225,-459,-5,1014.7,83.4,0
"2021-06-09 18:57:39+00",12.4,14.4,,82.5,-268,-505,-11,1014.66,83.4,0
"2021-06-09 19:02:39+00",13.3,15.3,,82.1,-271,-527,-6,1014.7,83,0
"2021-06-09 19:07:39+00",10.3,12.3,,81.9,-243,-392,-2,1014.62,82.7,0
"2021-06-09 19:12:39+00",11.7,14.7,,81.8,-323,-424,27,1014.59,82.6,0
"2021-06-09 19:17:39+00",12.0,13.0,,81.5,-303,-465,9,1014.62,82.1,0
"2021-06-09 19:22:39+00",12.5,14.5,,81.1,-348,-471,15,1014.61,81.7,0
"2021-06-09 19:27:39+00",13.8,15.8,,80.8,-336,-539,4,1014.59,81.2,0
"2021-06-09 19:32:39+00",13.6,15.6,,80.7,-322,-527,-3,1014.51,80.9,0
"2021-06-09 19:37:39+00",12.1,13.1,,80.5,-340,-432,2,1014.56,80.8,0
"2021-06-09 19:42:39+00",11.7,13.7,,80.7,-426,-320,7,1014.58,80.7,0
"2021-06-09 19:47:39+00",9.8,11.8,,80.7,-323,-295,19,1014.37,80.6,0
"2021-06-09 19:52:39+00",9.9,10.9,,80.7,-292,-336,2,1014.28,80.5,0
"2021-06-09 19:57:39+00",9.6,11.6,,80.6,-222,-385,9,1014.23,80.5,0
"2021-06-09 20:02:39+00",9.4,10.4,,80.5,-241,-359,9,1014.2,80.3,0
"2021-06-09 20:07:39+00",9.8,10.8,,80.3,-361,-259,11,1014.2,80.2,0
"2021-06-09 20:12:39+00",7.9,8.9,,80.1,-266,-240,3,1014.16,80.1,0
"2021-06-09 20:17:39+00",7.2,9.2,,80,-264,-200,17,1014.26,80,0
"2021-06-09 20:22:39+00",7.6,9.6,,80,-257,-216,2,1014.06,79.9,0
"2021-06-09 20:27:39+00",8.0,9.0,,79.8,-255,-247,17,1014.1,79.7,0
"2021-06-09 20:32:39+00",8.6,9.6,,79.7,-282,-248,13,1014.11,79.6,0
"2021-06-09 20:37:39+00",7.3,9.3,,79.7,-219,-236,4,1014.1,79.6,0
"2021-06-09 20:42:39+00",8.6,9.6,,79.6,-240,-313,17,1014.11,79.5,0
"2021-06-09 20:47:39+00",7.4,8.4,,79.5,-194,-269,12,1014.04,79.5,0
"2021-06-09 20:52:39+00",7.1,9.1,,79.6,-105,-282,5,1014.03,79.5,0
"2021-06-09 20:57:39+00",9.1,10.1,,79.4,-192,-360,6,1013.98,79.4,0
"2021-06-09 21:02:39+00",10.2,11.2,,79.2,-271,-397,11,1013.92,79.4,0
"2021-06-09 21:07:39+00",11.8,13.8,,79.5,-322,-409,-15,1013.93,79.6,0
"2021-06-09 21:12:39+00",9.0,11.0,,79.9,-266,-319,44,1013.99,80.4,0
"2021-06-09 21:17:39+00",9.4,11.4,,80.1,-281,-329,34,1014.08,80.7,0
"2021-06-09 21:22:39+00",11.5,13.5,,80,-340,-384,13,1014.13,80.8,0
"2021-06-09 21:27:39+00",11.7,13.7,,80.2,-407,-351,40,1013.99,81.6,0
"2021-06-09 21:32:39+00",13.3,15.3,,80.5,-475,-372,13,1014.09,82.5,0
"2021-06-09 21:37:39+00",12.5,13.5,,80.2,-449,-342,10,1013.86,82.6,0
"2021-06-09 21:42:39+00",12.2,14.2,,80.2,-427,-353,24,1013.86,82.3,0
"2021-06-09 21:47:39+00",11.1,14.1,,79.7,-337,-358,37,1013.86,81.7,0
"2021-06-09 21:52:39+00",12.8,14.8,,79.6,-372,-463,14,1013.74,81.5,0
"2021-06-09 21:57:39+00",14.7,16.7,,79.4,-475,-444,5,1013.77,81.6,0
"2021-06-09 22:02:39+00",13.8,15.8,,78.9,-439,-431,11,1013.59,81.4,0
"2021-06-09 22:07:39+00",12.9,14.9,,78.8,-331,-492,9,1013.76,81.3,0
"2021-06-09 22:12:39+00",10.2,12.2,,78.4,-284,-379,49,1013.85,80.6,0
"2021-06-09 22:17:39+00",9.1,10.1,,78.6,-255,-344,50,1013.99,80.5,0
"2021-06-09 22:22:39+00",9.3,11.3,,78.9,-280,-295,9,1014.06,81,0
"2021-06-09 22:27:39+00",9.6,11.6,,79.1,-331,-288,16,1014.17,81.2,0
"2021-06-09 22:32:39+00",10.9,11.9,,78.9,-334,-329,-5,1014.28,80.8,0
"2021-06-09 22:37:39+00",10.2,12.2,,78.6,-317,-316,0,1014.2,80.2,0
"2021-06-09 22:42:39+00",8.9,10.9,,78.4,-335,-238,19,1014.23,79.7,0
"2021-06-09 22:47:39+00",11.9,13.9,,78.7,-443,-315,15,1014.28,79.4,0
"2021-06-09 22:52:39+00",10.3,11.3,,78.7,-366,-284,15,1014.21,79.2,0
"2021-06-09 22:57:39+00",8.5,9.5,,78.7,-352,-193,7,1014.42,79.1,0
"2021-06-09 23:02:39+00",7.6,8.6,,78.7,-314,-102,6,1014.52,79,0
"2021-06-09 23:07:39+00",6.3,7.3,,78.7,-247,-100,13,1014.51,79,0
"2021-06-09 23:12:39+00",4.9,5.9,,78.6,-190,-84,6,1014.6,79,0
"2021-06-09 23:17:39+00",2.8,3.8,,78.7,-108,-37,0,1014.65,78.9,0
"2021-06-09 23:22:39+00",3.9,4.9,,78.8,-172,55,2,1014.69,78.8,0
"2021-06-09 23:27:39+00",6.5,7.5,,79.2,-286,32,1,1014.78,78.7,0
"2021-06-09 23:32:39+00",7.5,7.5,,79.1,-329,-3,5,1014.81,78.5,0
"2021-06-09 23:37:39+00",7.5,8.5,,79.3,-331,-8,9,1014.75,78.4,0
"2021-06-09 23:42:39+00",7.2,7.2,,79.5,-322,-1,5,1014.66,78.3,0
"2021-06-09 23:47:39+00",6.9,7.9,,79.4,-307,5,7,1014.58,78.3,0
"2021-06-09 23:52:39+00",7.3,8.3,,79.4,-322,16,-1,1014.58,78.3,0
"2021-06-09 23:57:39+00",8.5,9.5,,79.4,-375,73,5,1014.64,78.2,0
